Regional Weather Roundup
Issued by NWS

Home | Current Version | Previous Version | Text Only | Print | Product List | Glossary On
Versions: 1 2 3 4 5 6 7 8 9 10 11 12 13 14 15 16 17 18 19 20 21 22 23 24 25 26 27 28 29 30 31 32 33 34 35 36 37 38 39 40 41 42 43 44 45 46 47 48 49 50
000
ASUS44 KEWX 281011
RWRTX
SOUTH TEXAS REGIONAL WEATHER ROUNDUP
NATIONAL WEATHER SERVICE AUSTIN/SAN ANTONIO TX
500 AM CDT SAT MAY 28 2016

NOTE: "FAIR" INDICATED FEW OR NO CLOUDS BELOW 12,000 FEET WITH NO
SIGNIFICANT WEATHER AND/OR OBSTRUCTIONS TO VISIBILITY.

* - THESE STATIONS ARE NOT NWS OR FAA STATIONS...AND ARE NOT SUBJECT
    TO NWS AND FAA QUALITY CONTROL.

TXZ171-172-183>190-281100-
TEXAS HILL COUNTRY AND EDWARDS PLATEAU

CITY           SKY/WX    TMP DP  RH WIND       PRES   REMARKS
JUNCTION       CLEAR     61  60  97 NW7       29.88R
*LLANO         FOG       64  64 100 CALM      29.89S VSB 1/2
BURNET         FOG       65  64  97 S5        29.88R VSB 1/2
*HORSESHOE BAY FOG       62  61  98 CALM      29.85R VSB 3/4
*KERRVILLE     FOG       67  67  97 SE3       29.88S VSB 3/4
*FREDERICKSBRG FOG       69  68  97 CALM      29.89R VSB 3/4
*ROCKSPRINGS     N/A     64  64 100 CALM      29.91R
*BOERNE STAGE  CLOUDY    68  64  88 SE5       29.89R
*CASTROVILLE   CLOUDY    72  68  89 E9        29.87R
HONDO          CLOUDY    73  70  90 E9        29.86R
*UVALDE        CLOUDY    72  71  95 E10G16    29.85R
DEL RIO        CLOUDY    68  66  93 CALM      29.82R
LAUGHLIN AFB   MOCLDY    66  66 100 NW5       29.83R
CARRIZO SPRGS  PTCLDY    70  70 100 E5        29.79R FOG
*EAGLE PASS    CLOUDY    70  68  94 CALM      29.81R
$$

TXZ173-191>194-202-209-217>225-228-281100-
CENTRAL AND SOUTH CENTRAL TEXAS

CITY           SKY/WX    TMP DP  RH WIND       PRES   REMARKS
GEORGETOWN     CLOUDY    66  63  88 S3        29.85S
AUSTIN/BERGSTM MOCLDY    65  65 100 CALM      29.86R FOG
AUSTIN/MABRY   CLOUDY    66  66 100 VRB3      29.87R FOG
*AUSTIN/EXEC   CLOUDY    64  64 100 S6        29.87R FOG
*LAGO VISTA    RAIN      66  65  95 S3        29.88R VSB<1/4
SAN MARCOS     CLEAR     64  63  94 CALM      29.87R
NEW BRAUNFELS  MOCLDY    68  66  93 CALM      29.85R
RANDOLPH AFB   CLOUDY    70  70 100 E3        29.86S FOG
PT SAN ANTONIO CLOUDY    71  66  84 E7        29.85R
SAN ANTONIO    CLOUDY    70  66  87 E6        29.86R
STINSON FIELD  CLOUDY    72  66  81 E6        29.84R
*PLEASANTON    CLOUDY    71  64  79 E6        29.84S
*LA GRANGE       N/A     68  67  97 S5        29.84R
*GIDDINGS      NOT AVBL
*GONZALES      CLEAR     67  67 100 CALM      29.84S
$$

TXZ163>164-176>182-195>201-210>213-226-227-235-281100-
SOUTHEAST TEXAS

CITY           SKY/WX    TMP DP  RH WIND       PRES   REMARKS
COLLEGE STN    FOG       62  62 100 CALM      29.87R VSB 1/4
*BRYAN         FOG       64  64 100 S5        29.88S VSB 1/4
*CALDWELL      CLOUDY    64  64 100 S5        29.90R FOG
*CROCKETT      CLOUDY    64  64 100 SE5       29.91R
*BRENHAM       PTCLDY    65  65 100 S5        29.87S
HUNTSVILLE     CLEAR     63  61  93 CALM      29.87R
CONROE         CLEAR     62  61  96 CALM      29.88S FOG
HOUSTON BUSH   PTCLDY    65  65 100 CALM      29.86S
HOUSTON HOBBY  PTCLDY    69  67  93 S5        29.85S
*HOUSTON SW AP CLEAR     70  68  94 CALM      29.86F
PEARLAND       CLEAR     73  70  90 S3        29.86F
HOUSTON HOOKS  MOCLDY    65  64  97 CALM      29.87S
ELLINGTON FLD  PTCLDY    70  70 100 CALM      29.86F
SUGAR LAND     CLEAR     69  67  93 S6        29.85F
*HOUSTON EXEC    N/A     64  64 100 CALM      29.88S
*CLEVELAND MUN PTCLDY    64  64 100 CALM      29.88R
*WHARTON       PTCLDY    68  67  96 E3        29.87F
*COLUMBUS      MOCLDY    65  65  99 E5        29.86S
*EAGLE LAKE    CLOUDY    66  66  99 CALM      29.87R
$$

TXZ214>216-236>238-281100-
THE UPPER TEXAS COAST

CITY           SKY/WX    TMP DP  RH WIND       PRES   REMARKS
*ORANGE        CLOUDY    73  64  74 S5        29.86F
PORT ARTHUR    CLOUDY    70  65  84 S8        29.84F
GALVESTON      CLEAR     74  70  87 SE9       29.85F
ANGLETON       CLEAR     71  69  93 S6        29.85F
*BAY CITY      CLEAR     72  72  99 SE3       29.86F
PALACIOS       CLEAR     78  73  84 E15       29.85R
$$

TXZ229>234-239>247-281100-
TEXAS COASTAL BEND AND RIO GRANDE PLAINS

CITY           SKY/WX    TMP DP  RH WIND       PRES   REMARKS
VICTORIA       CLOUDY    72  70  93 E7        29.85R
*BEEVILLE      CLOUDY    72  72 100 E3        29.83R
ROCKPORT       PTCLDY    81  76  84 SE22G31   29.81S
*PORT ARANSAS  MOCLDY    80  79  95 SE18G30   29.82S
*PORT LAVACA   MOCLDY    77  75  94 SE12G17   29.85R
*INGLESIDE     PTCLDY    58  55  91 SE17G29   29.81S
CORPUS CHRISTI PTCLDY    81  77  88 SE17G26   29.81R
CORPUS NAS     MOCLDY    81  80  97 SE24G31   29.81R HX  91
*ROBSTOWN      CLEAR     81  77  89 SE12      29.81R
ALICE          CLOUDY    78  76  93 SE16      29.80R
KINGSVILLE NAS MOCLDY    80  80 100 SE16      29.80R
COTULLA        CLOUDY    77  73  87 E10       29.81R
*FAITH RANCH     N/A    N/A N/A N/A MISG        N/A
LAREDO         CLEAR     78  74  87 E13       29.79R
$$

TXZ248>255-281100-
DEEP SOUTH TEXAS

CITY           SKY/WX    TMP DP  RH WIND       PRES   REMARKS
BROWNSVILLE    CLOUDY    81  79  94 E13       29.81R HX  90
PORT ISABEL    MOCLDY    82  79  90 E17G24    29.81R FOG     HX  92
*SOUTH PADRE     N/A     81  77  89 E16       29.83R
HARLINGEN      MOCLDY    82  78  88 SE16      29.79S FOG     HX  91
*HEBBRONVILLE  CLOUDY    78  75  92 SE12      29.81S
MCALLEN        CLOUDY    81  77  88 E13       29.78S
*WESLACO       CLOUDY    79  76  91 E9        29.78S FOG
FALFURRIAS     CLOUDY    81  76  86 SE9G16    29.80R
EDINBURG       MOCLDY    80  76  88 E10       29.78S
*ZAPATA        CLOUDY    78  75  89 E10G21    29.77R
$$

TXZ213>215-236>238-242>244-246-247-251-254-255-281100-
CMAN STATIONS

STATION/POSITION TIME  TEMP    WIND        PRES    WAVE
                       AIR SEA DIR/SP/G            HT/PER
                 (UTC) (F)     (DEG/KT/KT) (MB)    (FT/S)
SABINE PASS      0900   75 80  160/ 15/ 22 1012.0
SEA RIM ST PARK  1000   76     160/ 13/ 17 1011.1
NORTH JETTY/GLS  0900   78 79                N/A
EAGLE POINT      0900   71 72  270/  2/  4 1011.1
MORGANS POINT    0900   74 74  210/  3/  5 1011.1
MISSION/ARANSAS  0900   82                 1010.0
PORT O`CONNOR    0900          150/ 24/ 29   N/A
PORT ARANSAS     1000   81 82  120/ 19/ 22 1010.2
MALAQUITE BEACH  0900   81 83  110/ 22/ 24 1009.2
BAFFIN BAY       0900   81 83  120/ 16/ 20 1009.2
PORT ISABEL      0900   80 81  170/  5/  7 1008.9
$$

GMZ080-GMZ150>470-281100-
OFFSHORE BUOY REPORTS

STATION/POSITION TIME  TEMP    WIND        PRES    WAVE
                       AIR SEA DIR/SP/G            HT/PER
                 (UTC) (F)     (DEG/KT/KT) (MB)    (FT/S)
20 E GALVESTON   0950   76 80  120/ 16/ 17 1010.0    6/ 8
90 E PT ARANSAS  0950   78 81  110/ 17/ 21 1011.1    6/ 7
35 NE PT MANSFLD 0950   81 81  120/ 21/ 25 1009.4    6/ 8
200 E PT ISABEL  0950                        N/A     6/ 7
$$




USA.gov is the U.S. government's official web portal to all federal, state and local government web resources and services.